DW9162 Weather Reports


time (UTC)temp
C
wind
direction
speed
KPH
gust
KPH
rain 1hr
cm
rain 24hr
cm
rain mn
cm
humidity
%
barometer
mb
20260504081531 8 242 0.0 0.0 0.00 0.00 0.00 13 1017.6
20260504044603 11 242 0.0 0.0 0.00 0.00 0.00 41 1018.5
20260504043055 11 242 0.0 0.0 0.00 0.00 0.00 43 1018.5
20260504041554 11 242 0.0 0.0 0.00 0.00 0.00 47 1018.5
20260504040050 11 242 0.0 0.0 0.00 0.00 0.00 48 1018.5
20260504034605 11 242 0.0 0.0 0.00 0.00 0.00 50 1018.4
20260504033042 12 242 0.0 0.0 0.00 0.00 0.00 53 1018.5
20260504031537 12 242 0.0 0.0 0.00 0.00 0.00 54 1018.5
20260504030040 12 242 0.0 0.0 0.00 0.00 0.00 58 1018.5
20260504024529 12 242 0.0 0.0 0.00 0.00 0.00 59 1018.5
20260504023024 13 242 0.0 0.0 0.00 0.00 0.00 60 1018.4
20260504021523 13 241 0.0 0.0 0.00 0.00 0.00 61 1018.2
20260504020018 13 241 0.0 0.0 0.00 0.00 0.00 61 1018.1
20260504014511 14 241 0.0 0.0 0.00 0.00 0.00 61 1017.8
20260504013009 15 242 0.0 0.0 0.00 0.00 0.00 60 1017.7
20260504011503 15 241 0.0 0.0 0.00 0.00 0.00 59 1017.6
20260504010100 16 241 0.0 0.0 0.00 0.00 0.00 58 1017.5
20260504004553 17 241 0.0 0.0 0.00 0.00 0.00 55 1017.4
20260504003053 17 241 0.0 0.0 0.00 0.00 0.00 53 1017.2
20260504001545 18 241 0.0 0.0 0.00 0.00 0.00 49 1017.1
20260504000043 18 241 0.0 0.0 0.00 0.00 0.00 47 1017.1
20260503234545 18 241 0.0 0.0 0.00 0.00 0.00 44 1017.1
20260503233032 19 242 0.0 0.0 0.00 0.00 0.00 42 1017.1
20260503231528 19 242 0.0 0.0 0.00 0.00 0.00 40 1017.2
20260503230022 19 242 0.0 0.0 0.00 0.00 0.00 39 1017.3
20260503224518 19 242 0.0 0.0 0.00 0.00 0.00 39 1017.3
20260503223014 20 242 0.0 0.0 0.00 0.00 0.00 41 1017.4
20260503221510 20 242 0.0 0.0 0.00 0.00 0.00 39 1017.4
20260503220019 20 242 0.0 0.0 0.00 0.00 0.00 40 1017.4
20260503214500 20 241 0.0 0.0 0.00 0.00 0.00 41 1017.5
20260503213110 20 241 0.0 0.0 0.00 0.00 0.00 40 1017.6
20260503211553 20 241 0.0 0.0 0.00 0.00 0.00 37 1017.7
20260503210100 20 240 0.0 0.0 0.00 0.00 0.00 39 1017.7
20260503204543 20 240 0.0 0.0 0.00 0.00 0.00 40 1017.9
20260503203039 19 240 0.0 0.0 0.00 0.00 0.00 41 1018.2
20260503201535 19 240 0.0 0.0 0.00 0.00 0.00 39 1018.5
20260503200030 19 237 0.0 0.0 0.00 0.00 0.00 42 1018.7
20260503194525 18 237 0.0 0.0 0.00 0.00 0.00 44 1019.1
20260503193021 18 237 0.0 0.0 0.00 0.00 0.00 46 1019.3
20260503191520 18 237 0.0 0.0 0.00 0.00 0.00 46 1019.6
20260503190012 18 236 0.0 0.0 0.00 0.00 0.00 49 1019.6
20260503184508 18 236 0.0 0.0 0.00 0.00 0.00 47 1019.9
20260503183004 18 223 0.0 0.0 0.00 0.00 0.00 49 1020.0
20260503181609 18 223 0.0 0.0 0.00 0.00 0.00 48 1020.1
20260503180055 17 223 0.0 0.0 0.00 0.00 0.00 45 1020.2
20260503174550 17 218 0.0 0.0 0.00 0.00 0.00 49 1020.3
20260503173056 17 230 0.0 0.0 0.00 0.00 0.00 49 1020.6
20260503171541 17 232 0.0 0.0 0.00 0.00 0.00 51 1020.7